Time,TemperatureF,DewpointF,PressureIn,WindDirection,WindDirectionDegrees,WindSpeedMPH,WindSpeedGustMPH,Humidity,HourlyPrecipIn,Conditions,Clouds,dailyrainin,SolarRadiationWatts/m^2,SoftwareType,DateUTC
2014-01-08 00:00:00,53.2,20.9,30.06,ENE,70,0.0,0.0,28,0.00,,,0.00,0,Wunderground v.1.15,2014-01-08 07:00:00,
2014-01-08 00:30:00,52.4,21.8,30.05,NE,38,3.0,3.0,30,0.00,,,0.00,0,Wunderground v.1.15,2014-01-08 07:30:00,
2014-01-08 01:00:00,50.0,23.4,30.05,South,190,1.0,1.0,35,0.00,,,0.00,0,Wunderground v.1.15,2014-01-08 08:00:00,
2014-01-08 01:30:00,49.4,22.9,30.04,East,96,2.0,3.0,35,0.00,,,0.00,0,Wunderground v.1.15,2014-01-08 08:30:00,
2014-01-08 02:00:00,50.0,22.7,30.03,ESE,112,2.0,3.0,34,0.00,,,0.00,0,Wunderground v.1.15,2014-01-08 09:00:00,
2014-01-08 02:30:00,49.8,22.5,30.03,ENE,74,2.0,2.0,34,0.00,,,0.00,0,Wunderground v.1.15,2014-01-08 09:30:00,
2014-01-08 03:00:00,48.8,23.0,30.03,NNE,32,2.0,2.0,36,0.00,,,0.00,0,Wunderground v.1.15,2014-01-08 10:00:00,
2014-01-08 03:30:00,48.1,23.0,30.04,NNE,32,2.0,2.0,37,0.00,,,0.00,0,Wunderground v.1.15,2014-01-08 10:30:00,
2014-01-08 04:00:00,47.9,22.8,30.04,NNE,33,3.0,3.0,37,0.00,,,0.00,0,Wunderground v.1.15,2014-01-08 11:00:00,
2014-01-08 04:30:00,47.8,22.1,30.03,NNE,25,3.0,3.0,36,0.00,,,0.00,0,Wunderground v.1.15,2014-01-08 11:30:00,
2014-01-08 05:00:00,46.5,22.8,30.02,NNE,22,1.0,1.0,39,0.00,,,0.00,0,Wunderground v.1.15,2014-01-08 12:00:00,
2014-01-08 05:30:00,43.7,23.7,30.02,East,90,1.0,1.0,45,0.00,,,0.00,0,Wunderground v.1.15,2014-01-08 12:30:00,
2014-01-08 06:00:00,43.1,24.2,30.02,ENE,64,1.0,2.0,47,0.00,,,0.00,0,Wunderground v.1.15,2014-01-08 13:00:00,
2014-01-08 06:30:00,44.5,23.4,30.02,East,84,2.0,2.0,43,0.00,,,0.00,0,Wunderground v.1.15,2014-01-08 13:30:00,
2014-01-08 07:00:00,43.5,23.0,30.03,NNE,31,2.0,2.0,44,0.00,,,0.00,0,Wunderground v.1.15,2014-01-08 14:00:00,
2014-01-08 07:30:00,43.4,22.9,30.03,NNE,28,2.0,2.0,44,0.00,,,0.00,9,Wunderground v.1.15,2014-01-08 14:30:00,
2014-01-08 08:00:00,45.8,22.8,30.04,ENE,75,2.0,2.0,40,0.00,,,0.00,30,Wunderground v.1.15,2014-01-08 15:00:00,
2014-01-08 08:30:00,48.8,25.5,30.05,NE,36,1.0,1.0,40,0.00,,,0.00,172,Wunderground v.1.15,2014-01-08 15:30:00,
2014-01-08 09:00:00,50.6,27.7,30.07,SSE,148,0.0,0.0,41,0.00,,,0.00,267,Wunderground v.1.15,2014-01-08 16:00:00,
2014-01-08 09:30:00,50.9,23.5,30.08,SSW,192,2.0,4.0,34,0.00,,,0.00,364,Wunderground v.1.15,2014-01-08 16:30:00,
2014-01-08 10:00:00,54.9,24.0,30.08,East,89,1.0,1.0,30,0.00,,,0.00,264,Wunderground v.1.15,2014-01-08 17:00:00,
2014-01-08 10:30:00,57.2,21.6,30.07,ENE,64,3.0,3.0,25,0.00,,,0.00,427,Wunderground v.1.15,2014-01-08 17:30:00,
2014-01-08 11:00:00,60.5,20.3,30.07,ESE,123,2.0,2.0,21,0.00,,,0.00,494,Wunderground v.1.15,2014-01-08 18:00:00,
2014-01-08 11:30:00,62.7,22.2,30.07,South,172,1.0,3.0,21,0.00,,,0.00,598,Wunderground v.1.15,2014-01-08 18:30:00,
2014-01-08 12:00:00,63.1,21.3,30.05,WSW,252,1.0,1.0,20,0.00,,,0.00,631,Wunderground v.1.15,2014-01-08 19:00:00,
2014-01-08 12:30:00,65.5,20.8,30.03,NW,305,3.0,3.0,18,0.00,,,0.00,617,Wunderground v.1.15,2014-01-08 19:30:00,
2014-01-08 13:00:00,66.2,20.0,30.01,West,279,3.0,3.0,17,0.00,,,0.00,629,Wunderground v.1.15,2014-01-08 20:00:00,
2014-01-08 13:30:00,67.0,17.8,30.00,WNW,290,3.0,5.0,15,0.00,,,0.00,598,Wunderground v.1.15,2014-01-08 20:30:00,
2014-01-08 14:00:00,68.1,17.0,29.99,SW,225,3.0,3.0,14,0.00,,,0.00,561,Wunderground v.1.15,2014-01-08 21:00:00,
2014-01-08 14:30:00,67.5,18.2,29.99,NNW,329,4.0,4.0,15,0.00,,,0.00,508,Wunderground v.1.15,2014-01-08 21:30:00,
2014-01-08 15:00:00,67.1,17.8,30.00,West,259,4.0,5.0,15,0.00,,,0.00,448,Wunderground v.1.15,2014-01-08 22:00:00,
2014-01-08 15:30:00,66.7,17.5,29.99,NW,323,4.0,7.0,15,0.00,,,0.00,374,Wunderground v.1.15,2014-01-08 22:30:00,
2014-01-08 16:00:00,66.2,17.1,29.99,WNW,298,4.0,8.0,15,0.00,,,0.00,288,Wunderground v.1.15,2014-01-08 23:00:00,
2014-01-08 16:30:00,65.1,17.7,30.00,WNW,298,5.0,5.0,16,0.00,,,0.00,197,Wunderground v.1.15,2014-01-08 23:30:00,
2014-01-08 17:00:00,63.7,18.0,30.00,West,280,4.0,4.0,17,0.00,,,0.00,93,Wunderground v.1.15,2014-01-09 00:00:00,
2014-01-08 17:30:00,61.1,18.5,30.00,NW,306,2.0,2.0,19,0.00,,,0.00,7,Wunderground v.1.15,2014-01-09 00:30:00,
2014-01-08 18:00:00,58.6,18.7,30.01,NNE,13,1.0,1.0,21,0.00,,,0.00,0,Wunderground v.1.15,2014-01-09 01:00:00,
2014-01-08 18:30:00,56.5,20.1,30.01,NW,312,1.0,2.0,24,0.00,,,0.00,0,Wunderground v.1.15,2014-01-09 01:30:00,
2014-01-08 19:00:00,56.0,18.7,30.01,North,5,2.0,2.0,23,0.00,,,0.00,0,Wunderground v.1.15,2014-01-09 02:00:00,
2014-01-08 19:30:00,53.6,19.5,30.02,ESE,123,2.0,2.0,26,0.00,,,0.00,0,Wunderground v.1.15,2014-01-09 02:30:00,
2014-01-08 20:00:00,52.4,20.2,30.03,NE,51,2.0,2.0,28,0.00,,,0.00,0,Wunderground v.1.15,2014-01-09 03:00:00,
2014-01-08 20:30:00,49.1,19.7,30.05,NE,46,1.0,1.0,31,0.00,,,0.00,0,Wunderground v.1.15,2014-01-09 03:30:00,
2014-01-08 21:00:00,49.4,20.0,30.06,ENE,71,0.0,0.0,31,0.00,,,0.00,0,Wunderground v.1.15,2014-01-09 04:00:00,
2014-01-08 21:30:00,46.6,20.4,30.07,NE,45,2.0,2.0,35,0.00,,,0.00,0,Wunderground v.1.15,2014-01-09 04:30:00,
2014-01-08 22:00:00,46.6,20.4,30.07,NE,39,3.0,3.0,35,0.00,,,0.00,0,Wunderground v.1.15,2014-01-09 05:00:00,
2014-01-08 22:30:00,47.1,20.1,30.06,NE,46,2.0,2.0,34,0.00,,,0.00,0,Wunderground v.1.15,2014-01-09 05:30:00,
2014-01-08 23:00:00,48.3,19.8,30.06,ENE,63,2.0,3.0,32,0.00,,,0.00,0,Wunderground v.1.15,2014-01-09 06:00:00,
2014-01-08 23:30:00,48.7,19.4,30.06,ENE,65,2.0,2.0,31,0.00,,,0.00,0,Wunderground v.1.15,2014-01-09 06:30:00,